Weather observations for the past three days for
Andover, Aeroflex-Andover Airport
Imperial (Metric)
Date Time (edt) Wind (mph) Vis. (mi.) Weather Sky Cond. Temperature (ºF) Relative Humidity Wind Chill (°F) Heat Index (°F) Pressure Precipitation (in)
Air Dwpt 6 hour altimeter (in) sea level (mb) 1 hr 3 hr 6 hr
Max. Min.
25 13:54 Calm 0.00 NULL NULL 86 50 86 68 29% 84 29.91 1012.0 0.01
25 12:54 Calm 0.00 NULL NULL 84.9 54 35% 83 29.92 1012.2
25 11:54 Vrbl 5 0.00 NULL NULL 84 57 40% 83 29.94 1013.2 0.01
25 10:54 Vrbl 6 0.00 NULL NULL 81 57.9 45% 81 29.96 1013.8
25 09:54 Calm 0.00 NULL NULL 78.1 57.9 50% 79 29.96 1013.6
25 08:54 Vrbl 3 0.00 NULL NULL 73.9 57 56% 29.95 1013.4
25 07:54 Calm 0.00 NULL NULL 68 57 68 55 68% 29.94 1013.3
25 06:54 Calm 0.00 NULL NULL 60.1 55.9 86% 29.94 1013.4
25 05:54 Calm 0.00 NULL NULL 55 53.1 93% 29.95 1013.8
25 04:54 Vrbl 3 0.00 NULL NULL 57 54 90% 29.94 1013.5
25 03:54 Calm 0.00 NULL NULL 55.9 53.1 90% 29.92 1012.7
25 02:54 Calm 0.00 NULL NULL 57 54 90% 29.9 1011.9
25 01:54 Calm 0.00 NULL NULL 59 54 72 59 83% 29.88 1011.2
25 00:54 Calm 0.00 NULL NULL 63 52 68% 29.87 1011.0
24 23:54 Calm 0.00 NULL NULL 61 54 78% 29.86 1010.6
24 22:54 Calm 0.00 NULL NULL 64.9 54 68% 29.85 1010.0
24 21:54 NW 6 0.00 NULL NULL 70 54 57% 29.84 1009.6
24 20:54 N 6 0.00 NULL NULL 71.1 53.1 53% 29.81 1008.6
24 19:54 N 8 0.00 NULL NULL 72 52 73.9 69.1 50% 29.79 1007.8
24 18:54 N 12 G 21 0.00 NULL NULL 72 51.1 48% 29.78 1007.5
24 17:54 N 12 G 28 0.00 NULL NULL 73 52 48% 29.75 1006.7
24 16:54 N 9 G 28 0.00 NULL NULL 71.1 53.1 53% 29.74 1006.4
24 15:54 N 9 G 30 0.00 NULL NULL 69.1 52 55% 29.74 1006.3
24 14:54 Calm 0.00 NULL NULL 71.1 54 55% 29.73 1005.9
24 13:54 NW 10 G 18 0.00 NULL NULL 70 53.1 73.9 70 55% 29.71 1005.4
24 12:54 Vrbl 5 0.00 NULL NULL 71.1 54 55% 29.71 1005.0
24 11:54 Calm 0.00 NULL NULL 72 54 53% 29.7 1004.9
24 10:54 SW 8 0.00 NULL NULL 73.9 55.9 54% 29.68 1004.1
24 09:54 NW 8 0.00 NULL NULL 72 54 53% 29.68 1004.1
24 08:54 Vrbl 3 0.00 NULL NULL 72 55 55% 29.67 1003.8
24 07:54 Vrbl 7 0.00 NULL NULL 71.1 57 78.1 71.1 61% 29.67 1003.7
24 06:54 Calm 0.00 NULL NULL 71.1 63 76% 29.64 1002.8
24 05:54 Calm 0.00 NULL NULL 72 64.9 79% 29.61 1001.7
24 04:54 Vrbl 3 0.00 NULL NULL 73.9 64 71% 29.61 1001.7
24 03:54 Vrbl 3 0.00 NULL NULL 75 64.9 71% 77 29.6 1001.1
24 02:54 Vrbl 3 0.00 NULL NULL 75.9 66 72% 77 29.59 1000.9
24 01:54 Calm 0.00 NULL NULL 78.1 66 84.9 75.9 67% 80 29.6 1001.2
24 00:54 Vrbl 5 0.00 NULL NULL 79 66 65% 81 29.61 1001.4
23 23:54 Calm 0.00 NULL NULL 77 68 74% 79 29.59 1000.8
23 22:54 Calm 0.00 NULL NULL 77 66.9 71% 79 29.59 1000.9
23 20:54 SW 8 0.00 NULL NULL 82.9 64 53% 84 29.6 1001.1
23 19:54 SW 9 G 21 0.00 NULL NULL 82.9 66.9 90 78.1 59% 86 29.6 1001.3 0.19
23 18:54 SW 6 0.00 NULL NULL 86 70 59% 91 29.6 1001.2
23 17:54 SW 8 0.00 NULL NULL 86 70 59% 91 29.6 1001.2
23 16:54 Calm 0.00 NULL NULL 82 77 85% 90 29.61 1001.8 0.18 0.19
23 15:54 SW 8 0.00 NULL NULL 89.1 70 53% 94 29.63 1002.3 0.01
23 14:54 SW 8 0.00 NULL NULL 89.1 70 53% 94 29.66 1003.2
23 13:54 S 7 G 17 0.00 NULL NULL 89.1 73 89.1 75.9 59% 97 29.68 1003.9 0.01 0.02
23 12:54 SW 7 G 17 0.00 NULL NULL 86 72 63% 92 29.71 1005.2
23 11:54 SW 9 G 16 0.00 NULL NULL 86 73 65% 93 29.74 1006.1 0.01
23 10:54 Vrbl 7 0.00 NULL NULL 84 72 67% 90 29.76 1006.6
23 09:54 SW 6 0.00 NULL NULL 80.1 72 76% 84 29.77 1007.2
23 08:54 SW 5 0.00 NULL NULL 78.1 72 82% 80 29.8 1008.2
23 07:54 Vrbl 5 0.00 NULL NULL 75.9 71.1 75.9 71.1 85% 76 29.81 1008.4
23 06:54 Vrbl 5 0.00 NULL NULL 73.9 71.1 91% 29.82 1008.5
23 05:54 Calm 0.00 NULL NULL 71.1 70 96% 29.83 1009.2
23 04:54 Calm 0.00 NULL NULL 71.1 70 96% 29.84 1009.5
23 03:54 Calm 0.00 NULL NULL 71.1 69.1 94% 29.86 1010.0
23 02:54 Calm 0.00 NULL NULL 71.1 69.1 94% 29.88 1011.0
23 01:54 Calm 0.00 NULL NULL 72 69.1 80.1 71.1 91% 29.91 1012.0 0.02 0.02
23 00:54 Calm 0.00 NULL NULL 71.1 68 90% 29.92 1012.1
22 23:54 Calm 0.00 NULL NULL 72 69.1 91% 29.92 1012.2
22 22:54 Calm 0.00 NULL NULL 75 66.9 76% 76 29.94 1012.7
22 21:54 Vrbl 5 0.00 NULL NULL 75.9 68 77% 77 29.97 1013.9
22 20:54 Vrbl 6 0.00 NULL NULL 77 69.1 77% 79 29.95 1013.1
22 19:54 SW 7 0.00 NULL NULL 80.1 69.1 93 80.1 69% 83 29.94 1012.7 0.03
22 18:54 Calm 0.00 NULL NULL 84.9 71.1 63% 90 29.94 1012.8
22 17:54 N 3 0.00 NULL NULL 86 71.1 61% 92 29.93 1012.6
22 16:54 N 8 0.00 NULL NULL 87.1 72 61% 94 29.94 1012.9 0.03
22 15:54 SW 3 0.00 NULL NULL 91 72 54% 99 29.94 1012.6 0.01
22 14:54 Calm 0.00 NULL NULL 87.1 73.9 65% 95 29.96 1013.4 0.02
Date Time (edt) Wind (mph) Vis. (mi.) Weather Sky Cond. Air Dwpt Max. Min. Relative Humidity Wind Chill (°F) Heat Index (°F) altimeter (in) sea level (mb) 1 hr 3 hr 6 hr
6 hour
Temperature (ºF) Pressure Precipitation (in)